Time,TemperatureF,DewpointF,PressureIn,WindDirection,WindDirectionDegrees,WindSpeedMPH,WindSpeedGustMPH,Humidity,HourlyPrecipIn,Conditions,Clouds,dailyrainin,SoftwareType,DateUTC
2013-09-29 00:00:00,57.0,50.2,30.05,WNW,284,2.0,11.0,78,0.00,,---,0.00,VWS V14.01,2013-09-29 07:00:00,
2013-09-29 00:03:00,56.9,50.5,30.06,North,360,4.0,5.0,79,0.00,,---,0.00,VWS V14.01,2013-09-29 07:03:00,
2013-09-29 00:08:00,56.9,50.5,30.05,WSW,252,2.0,8.0,79,0.00,,---,0.00,VWS V14.01,2013-09-29 07:08:00,
2013-09-29 00:14:00,57.1,51.0,30.06,WSW,258,4.0,8.0,80,0.00,,---,0.00,VWS V14.01,2013-09-29 07:14:00,
2013-09-29 00:19:00,57.2,51.1,30.05,WSW,250,0.0,10.0,80,0.00,,---,0.00,VWS V14.01,2013-09-29 07:19:00,
2013-09-29 00:24:00,57.3,51.2,30.05,WNW,288,0.0,10.0,80,0.00,,---,0.00,VWS V14.01,2013-09-29 07:24:00,
2013-09-29 00:29:00,57.3,51.2,30.05,WNW,288,0.0,0.0,80,0.00,,---,0.00,VWS V14.01,2013-09-29 07:29:00,
2013-09-29 00:30:00,57.3,51.5,30.05,WNW,288,0.0,10.0,81,0.00,,---,0.00,VWS V14.01,2013-09-29 07:30:00,
2013-09-29 00:34:00,57.3,51.2,30.05,NW,321,0.0,8.0,80,0.00,,---,0.00,VWS V14.01,2013-09-29 07:34:00,
2013-09-29 00:39:00,57.4,51.3,30.06,WNW,284,0.0,8.0,80,0.00,,---,0.00,VWS V14.01,2013-09-29 07:39:00,
2013-09-29 00:44:00,57.5,51.4,30.06,WNW,284,0.0,8.0,80,0.00,,---,0.00,VWS V14.01,2013-09-29 07:44:00,
2013-09-29 00:49:00,57.5,51.4,30.06,WNW,283,0.0,8.0,80,0.00,,---,0.00,VWS V14.01,2013-09-29 07:49:00,
2013-09-29 00:54:00,57.3,50.8,30.06,WNW,284,0.0,8.0,79,0.00,,---,0.00,VWS V14.01,2013-09-29 07:54:00,
2013-09-29 00:59:00,57.3,50.5,30.06,WNW,283,0.0,0.0,78,0.00,,---,0.00,VWS V14.01,2013-09-29 07:59:00,
2013-09-29 01:00:00,57.3,50.8,30.06,WNW,283,0.0,8.0,79,0.00,,---,0.00,VWS V14.01,2013-09-29 08:00:00,
2013-09-29 01:05:00,57.1,50.3,30.07,WNW,284,0.0,5.0,78,0.00,,---,0.00,VWS V14.01,2013-09-29 08:05:00,
2013-09-29 01:10:00,56.8,49.3,30.07,WNW,284,0.0,5.0,76,0.00,,---,0.00,VWS V14.01,2013-09-29 08:10:00,
2013-09-29 01:15:00,56.6,48.8,30.06,North,360,4.0,9.0,75,0.00,,---,0.00,VWS V14.01,2013-09-29 08:15:00,
2013-09-29 01:20:00,56.3,48.1,30.06,North,360,5.0,9.0,74,0.00,,---,0.00,VWS V14.01,2013-09-29 08:20:00,
2013-09-29 01:25:00,56.2,47.7,30.06,NW,307,6.0,9.0,73,0.00,,---,0.00,VWS V14.01,2013-09-29 08:25:00,
2013-09-29 01:30:00,56.1,47.2,30.06,NW,313,4.0,9.0,72,0.00,,---,0.00,VWS V14.01,2013-09-29 08:30:00,
2013-09-29 01:35:00,56.0,47.1,30.06,NW,311,3.0,9.0,72,0.00,,---,0.00,VWS V14.01,2013-09-29 08:35:00,
2013-09-29 01:40:00,56.1,46.8,30.07,North,360,4.0,10.0,71,0.00,,---,0.00,VWS V14.01,2013-09-29 08:40:00,
2013-09-29 01:45:00,56.1,46.8,30.06,WNW,288,4.0,10.0,71,0.00,,---,0.00,VWS V14.01,2013-09-29 08:45:00,
2013-09-29 01:50:00,56.1,46.8,30.07,North,360,3.0,10.0,71,0.00,,---,0.00,VWS V14.01,2013-09-29 08:50:00,
2013-09-29 01:55:00,56.2,46.9,30.07,WNW,285,0.0,10.0,71,0.00,,---,0.00,VWS V14.01,2013-09-29 08:55:00,
2013-09-29 02:00:00,56.2,46.9,30.07,West,277,2.0,2.0,71,0.00,,---,0.00,VWS V14.01,2013-09-29 09:00:00,
2013-09-29 02:06:00,56.4,47.1,30.07,WNW,284,2.0,5.0,71,0.00,,---,0.00,VWS V14.01,2013-09-29 09:06:00,
2013-09-29 02:11:00,56.6,47.3,30.07,WNW,284,0.0,5.0,71,0.00,,---,0.00,VWS V14.01,2013-09-29 09:11:00,
2013-09-29 02:16:00,56.8,47.9,30.07,WNW,284,0.0,5.0,72,0.00,,---,0.00,VWS V14.01,2013-09-29 09:16:00,
2013-09-29 02:21:00,56.9,48.3,30.07,WNW,284,0.0,5.0,73,0.00,,---,0.00,VWS V14.01,2013-09-29 09:21:00,
2013-09-29 02:26:00,57.0,49.2,30.07,WNW,284,0.0,5.0,75,0.00,,---,0.00,VWS V14.01,2013-09-29 09:26:00,
2013-09-29 02:30:00,57.1,49.6,30.07,WNW,284,0.0,5.0,76,0.00,,---,0.00,VWS V14.01,2013-09-29 09:30:00,
2013-09-29 02:31:00,57.2,50.1,30.07,WNW,284,0.0,0.0,77,0.00,,---,0.00,VWS V14.01,2013-09-29 09:31:00,
2013-09-29 02:36:00,57.2,50.8,30.07,WNW,284,0.0,0.0,79,0.00,,---,0.00,VWS V14.01,2013-09-29 09:36:00,
2013-09-29 02:41:00,57.1,51.0,30.06,WNW,284,0.0,4.0,80,0.00,,---,0.00,VWS V14.01,2013-09-29 09:41:00,
2013-09-29 02:46:00,56.9,50.8,30.06,WNW,284,3.0,4.0,80,0.00,,---,0.00,VWS V14.01,2013-09-29 09:46:00,
2013-09-29 02:51:00,56.7,50.3,30.07,WNW,284,0.0,4.0,79,0.00,,---,0.00,VWS V14.01,2013-09-29 09:51:00,
2013-09-29 02:56:00,56.6,50.2,30.06,WNW,285,0.0,4.0,79,0.00,,---,0.00,VWS V14.01,2013-09-29 09:56:00,
2013-09-29 03:00:00,56.6,50.2,30.06,WNW,285,0.0,4.0,79,0.00,,---,0.00,VWS V14.01,2013-09-29 10:00:00,
2013-09-29 03:01:00,56.6,50.2,30.06,WNW,284,0.0,0.0,79,0.00,,---,0.00,VWS V14.01,2013-09-29 10:01:00,
2013-09-29 03:06:00,56.6,50.2,30.06,WNW,284,0.0,0.0,79,0.00,,---,0.00,VWS V14.01,2013-09-29 10:06:00,
2013-09-29 03:11:00,56.6,49.8,30.06,WNW,285,0.0,0.0,78,0.00,,---,0.00,VWS V14.01,2013-09-29 10:11:00,
2013-09-29 03:16:00,56.5,49.7,30.05,WNW,285,0.0,0.0,78,0.00,,---,0.00,VWS V14.01,2013-09-29 10:16:00,
2013-09-29 03:21:00,56.5,49.7,30.05,WNW,285,0.0,0.0,78,0.00,,---,0.00,VWS V14.01,2013-09-29 10:21:00,
2013-09-29 03:27:00,56.6,49.5,30.05,North,360,3.0,4.0,77,0.00,,---,0.00,VWS V14.01,2013-09-29 10:27:00,
2013-09-29 03:30:00,56.5,49.4,30.05,North,360,1.0,4.0,77,0.00,,---,0.00,VWS V14.01,2013-09-29 10:30:00,
2013-09-29 03:32:00,56.5,49.0,30.05,North,360,0.0,3.0,76,0.00,,---,0.00,VWS V14.01,2013-09-29 10:32:00,
2013-09-29 03:37:00,56.6,48.8,30.05,North,360,0.0,3.0,75,0.00,,---,0.00,VWS V14.01,2013-09-29 10:37:00,
2013-09-29 03:42:00,56.5,49.0,30.05,North,360,0.0,3.0,76,0.00,,---,0.00,VWS V14.01,2013-09-29 10:42:00,
2013-09-29 03:47:00,56.6,49.1,30.04,North,360,0.0,3.0,76,0.00,,---,0.00,VWS V14.01,2013-09-29 10:47:00,
2013-09-29 03:52:00,56.8,49.3,30.04,North,360,0.0,3.0,76,0.00,,---,0.00,VWS V14.01,2013-09-29 10:52:00,
2013-09-29 03:57:00,56.9,49.8,30.04,North,360,0.0,3.0,77,0.00,,---,0.00,VWS V14.01,2013-09-29 10:57:00,
2013-09-29 04:00:00,56.9,49.8,30.04,North,360,0.0,3.0,77,0.00,,---,0.00,VWS V14.01,2013-09-29 11:00:00,
2013-09-29 04:02:00,57.0,49.9,30.04,North,360,0.0,4.0,77,0.00,,---,0.00,VWS V14.01,2013-09-29 11:02:00,
2013-09-29 04:07:00,57.0,50.2,30.05,North,360,0.0,4.0,78,0.00,,---,0.00,VWS V14.01,2013-09-29 11:07:00,
2013-09-29 04:12:00,57.1,50.0,30.05,North,360,0.0,4.0,77,0.00,,---,0.00,VWS V14.01,2013-09-29 11:12:00,
2013-09-29 04:17:00,57.1,50.0,30.05,North,360,3.0,4.0,77,0.00,,---,0.00,VWS V14.01,2013-09-29 11:17:00,
2013-09-29 04:22:00,57.1,50.3,30.05,North,360,0.0,4.0,78,0.00,,---,0.00,VWS V14.01,2013-09-29 11:22:00,
2013-09-29 04:27:00,57.1,50.0,30.05,WNW,288,1.0,5.0,77,0.00,,---,0.00,VWS V14.01,2013-09-29 11:27:00,
2013-09-29 04:30:00,57.1,50.0,30.05,North,360,3.0,5.0,77,0.00,,---,0.00,VWS V14.01,2013-09-29 11:30:00,
2013-09-29 04:32:00,57.1,50.0,30.05,WNW,287,1.0,5.0,77,0.00,,---,0.00,VWS V14.01,2013-09-29 11:32:00,
2013-09-29 04:38:00,57.0,49.9,30.05,WNW,288,3.0,6.0,77,0.00,,---,0.00,VWS V14.01,2013-09-29 11:38:00,
2013-09-29 04:43:00,56.9,49.4,30.05,North,360,3.0,6.0,76,0.00,,---,0.00,VWS V14.01,2013-09-29 11:43:00,
2013-09-29 04:48:00,56.8,49.3,30.05,WNW,288,0.0,7.0,76,0.00,,---,0.00,VWS V14.01,2013-09-29 11:48:00,
2013-09-29 04:53:00,56.7,48.9,30.05,North,360,5.0,7.0,75,0.00,,---,0.00,VWS V14.01,2013-09-29 11:53:00,
2013-09-29 04:58:00,56.6,48.8,30.05,WNW,302,3.0,7.0,75,0.00,,---,0.00,VWS V14.01,2013-09-29 11:58:00,
2013-09-29 05:00:00,56.6,48.8,30.05,North,360,3.0,7.0,75,0.00,,---,0.00,VWS V14.01,2013-09-29 12:00:00,
2013-09-29 05:03:00,56.5,48.7,30.05,WNW,303,5.0,6.0,75,0.00,,---,0.00,VWS V14.01,2013-09-29 12:03:00,
2013-09-29 05:08:00,56.4,48.2,30.05,WNW,288,3.0,6.0,74,0.00,,---,0.00,VWS V14.01,2013-09-29 12:08:00,
2013-09-29 05:13:00,56.2,48.0,30.06,North,360,6.0,9.0,74,0.00,,---,0.00,VWS V14.01,2013-09-29 12:13:00,
2013-09-29 05:18:00,56.0,47.8,30.06,North,360,4.0,9.0,74,0.00,,---,0.00,VWS V14.01,2013-09-29 12:18:00,
2013-09-29 05:23:00,56.1,47.6,30.05,North,360,0.0,9.0,73,0.00,,---,0.00,VWS V14.01,2013-09-29 12:23:00,
2013-09-29 05:28:00,56.3,47.8,30.05,WNW,287,3.0,9.0,73,0.00,,---,0.00,VWS V14.01,2013-09-29 12:28:00,
2013-09-29 05:30:00,56.3,47.8,30.05,WNW,288,0.0,9.0,73,0.00,,---,0.00,VWS V14.01,2013-09-29 12:30:00,
2013-09-29 05:33:00,56.4,47.9,30.05,West,281,0.0,5.0,73,0.00,,---,0.00,VWS V14.01,2013-09-29 12:33:00,
2013-09-29 05:38:00,56.3,47.8,30.05,WNW,283,5.0,5.0,73,0.00,,---,0.00,VWS V14.01,2013-09-29 12:38:00,
2013-09-29 05:43:00,56.4,47.9,30.05,WNW,283,3.0,5.0,73,0.00,,---,0.00,VWS V14.01,2013-09-29 12:43:00,
2013-09-29 05:48:00,56.5,48.0,30.05,WNW,284,0.0,5.0,73,0.00,,---,0.00,VWS V14.01,2013-09-29 12:48:00,
2013-09-29 05:53:00,56.5,48.0,30.05,WNW,288,5.0,5.0,73,0.00,,---,0.00,VWS V14.01,2013-09-29 12:53:00,
2013-09-29 05:58:00,56.5,48.0,30.05,WNW,287,4.0,5.0,73,0.00,,---,0.00,VWS V14.01,2013-09-29 12:58:00,
2013-09-29 06:00:00,56.5,48.0,30.05,WNW,287,4.0,5.0,73,0.00,,---,0.00,VWS V14.01,2013-09-29 13:00:00,
2013-09-29 06:03:00,56.6,48.1,30.06,North,360,4.0,4.0,73,0.00,,---,0.00,VWS V14.01,2013-09-29 13:03:00,
2013-09-29 06:09:00,56.5,48.0,30.06,North,360,2.0,5.0,73,0.00,,---,0.00,VWS V14.01,2013-09-29 13:09:00,
2013-09-29 06:14:00,56.5,48.0,30.07,North,360,0.0,5.0,73,0.00,,---,0.00,VWS V14.01,2013-09-29 13:14:00,
2013-09-29 06:19:00,56.5,48.0,30.07,North,360,2.0,5.0,73,0.00,,---,0.00,VWS V14.01,2013-09-29 13:19:00,
2013-09-29 06:24:00,56.5,48.0,30.07,North,360,0.0,5.0,73,0.00,,---,0.00,VWS V14.01,2013-09-29 13:24:00,
2013-09-29 06:30:00,56.6,48.4,30.07,North,360,0.0,5.0,74,0.00,,---,0.00,VWS V14.01,2013-09-29 13:30:00,
2013-09-29 07:00:00,56.6,48.4,30.07,WNW,285,3.0,6.0,74,0.00,,---,0.00,VWS V14.01,2013-09-29 14:00:00,
2013-09-29 07:30:00,56.8,47.9,30.07,North,360,0.0,6.0,72,0.00,,---,0.00,VWS V14.01,2013-09-29 14:30:00,
2013-09-29 08:00:00,58.7,51.5,30.07,North,360,0.0,0.0,77,0.00,,---,0.00,VWS V14.01,2013-09-29 15:00:00,
2013-09-29 08:30:00,60.0,54.5,30.07,North,360,0.0,0.0,82,0.00,,---,0.00,VWS V14.01,2013-09-29 15:30:00,
2013-09-29 09:00:00,60.2,55.3,30.08,North,360,0.0,4.0,84,0.00,,---,0.00,VWS V14.01,2013-09-29 16:00:00,
2013-09-29 09:30:00,62.6,57.7,30.09,West,265,0.0,3.0,84,0.00,,---,0.00,VWS V14.01,2013-09-29 16:30:00,
2013-09-29 10:00:00,62.0,56.8,30.09,North,360,0.0,7.0,83,0.00,,---,0.00,VWS V14.01,2013-09-29 17:00:00,
2013-09-29 10:16:00,63.9,59.0,30.08,North,360,2.0,6.0,84,0.00,,---,0.00,VWS V14.01,2013-09-29 17:16:00,
2013-09-29 10:21:00,63.8,58.9,30.08,SW,223,0.0,6.0,84,0.00,,---,0.00,VWS V14.01,2013-09-29 17:21:00,
2013-09-29 10:26:00,64.8,59.5,30.09,SW,219,0.0,6.0,83,0.00,,---,0.00,VWS V14.01,2013-09-29 17:26:00,
2013-09-29 10:30:00,64.8,59.5,30.08,SW,219,0.0,6.0,83,0.00,,---,0.00,VWS V14.01,2013-09-29 17:30:00,
2013-09-29 10:31:00,64.3,59.0,30.08,West,259,2.0,6.0,83,0.00,,---,0.00,VWS V14.01,2013-09-29 17:31:00,
2013-09-29 10:36:00,64.0,59.1,30.09,West,259,0.0,6.0,84,0.00,,---,0.00,VWS V14.01,2013-09-29 17:36:00,
2013-09-29 10:41:00,65.2,60.2,30.09,WSW,247,0.0,6.0,84,0.00,,---,0.00,VWS V14.01,2013-09-29 17:41:00,
2013-09-29 10:46:00,65.9,59.9,30.09,West,273,0.0,6.0,81,0.00,,---,0.00,VWS V14.01,2013-09-29 17:46:00,
2013-09-29 10:51:00,66.1,60.1,30.09,West,271,0.0,6.0,81,0.00,,---,0.00,VWS V14.01,2013-09-29 17:51:00,
2013-09-29 10:56:00,65.8,59.8,30.09,West,272,0.0,6.0,81,0.00,,---,0.00,VWS V14.01,2013-09-29 17:56:00,
2013-09-29 11:00:00,65.6,60.0,30.09,West,272,0.0,6.0,82,0.00,,---,0.00,VWS V14.01,2013-09-29 18:00:00,
2013-09-29 11:02:00,66.0,60.0,30.09,WSW,241,4.0,4.0,81,0.00,,---,0.00,VWS V14.01,2013-09-29 18:02:00,
2013-09-29 11:07:00,65.7,60.1,30.09,SW,234,0.0,6.0,82,0.00,,---,0.00,VWS V14.01,2013-09-29 18:07:00,
2013-09-29 11:12:00,65.6,60.0,30.09,SW,235,0.0,6.0,82,0.00,,---,0.00,VWS V14.01,2013-09-29 18:12:00,
2013-09-29 11:17:00,65.3,60.0,30.09,WSW,253,0.0,6.0,83,0.00,,---,0.00,VWS V14.01,2013-09-29 18:17:00,
2013-09-29 11:22:00,65.4,59.8,30.09,West,275,0.0,6.0,82,0.00,,---,0.00,VWS V14.01,2013-09-29 18:22:00,
2013-09-29 11:27:00,64.9,59.6,30.08,North,360,0.0,7.0,83,0.00,,---,0.00,VWS V14.01,2013-09-29 18:27:00,
2013-09-29 11:30:00,65.1,59.8,30.08,North,360,0.0,7.0,83,0.00,,---,0.00,VWS V14.01,2013-09-29 18:30:00,
2013-09-29 11:32:00,65.7,60.4,30.09,SSE,164,0.0,5.0,83,0.00,,---,0.00,VWS V14.01,2013-09-29 18:32:00,
2013-09-29 11:37:00,66.6,60.9,30.09,SSE,161,0.0,5.0,82,0.00,,---,0.00,VWS V14.01,2013-09-29 18:37:00,
2013-09-29 11:42:00,67.3,61.3,30.09,SSE,158,0.0,5.0,81,0.00,,---,0.00,VWS V14.01,2013-09-29 18:42:00,
2013-09-29 11:48:00,67.1,60.7,30.09,North,355,0.0,5.0,80,0.00,,---,0.00,VWS V14.01,2013-09-29 18:48:00,
2013-09-29 11:53:00,67.2,60.5,30.09,NW,314,0.0,7.0,79,0.00,,---,0.00,VWS V14.01,2013-09-29 18:53:00,
2013-09-29 11:58:00,66.9,60.5,30.09,NW,311,0.0,7.0,80,0.00,,---,0.00,VWS V14.01,2013-09-29 18:58:00,
2013-09-29 12:00:00,66.9,60.9,30.09,NW,311,0.0,7.0,81,0.00,,---,0.00,VWS V14.01,2013-09-29 19:00:00,
2013-09-29 12:03:00,68.0,61.6,30.09,SSE,165,1.0,2.0,80,0.00,,---,0.00,VWS V14.01,2013-09-29 19:03:00,
2013-09-29 12:08:00,69.2,61.3,30.09,ESE,118,0.0,4.0,76,0.00,,---,0.00,VWS V14.01,2013-09-29 19:08:00,
2013-09-29 12:13:00,69.0,60.8,30.09,NW,311,0.0,5.0,75,0.00,,---,0.00,VWS V14.01,2013-09-29 19:13:00,
2013-09-29 12:18:00,68.9,61.4,30.09,SW,231,2.0,5.0,77,0.00,,---,0.00,VWS V14.01,2013-09-29 19:18:00,
2013-09-29 12:23:00,69.1,60.8,30.09,East,98,2.0,7.0,75,0.00,,---,0.00,VWS V14.01,2013-09-29 19:23:00,
2013-09-29 12:28:00,69.3,60.3,30.09,SE,142,0.0,7.0,73,0.00,,---,0.00,VWS V14.01,2013-09-29 19:28:00,
2013-09-29 12:30:00,69.3,60.3,30.09,SE,142,0.0,7.0,73,0.00,,---,0.00,VWS V14.01,2013-09-29 19:30:00,
2013-09-29 12:33:00,68.5,59.5,30.08,North,360,3.0,7.0,73,0.00,,---,0.00,VWS V14.01,2013-09-29 19:33:00,
2013-09-29 12:38:00,67.9,59.7,30.09,NW,309,6.0,9.0,75,0.00,,---,0.00,VWS V14.01,2013-09-29 19:38:00,
2013-09-29 12:43:00,67.6,59.8,30.09,West,275,0.0,10.0,76,0.00,,---,0.00,VWS V14.01,2013-09-29 19:43:00,
2013-09-29 12:48:00,67.9,60.4,30.09,NNE,32,2.0,10.0,77,0.00,,---,0.00,VWS V14.01,2013-09-29 19:48:00,
2013-09-29 12:50:00,68.0,60.2,30.09,North,360,3.0,10.0,76,0.00,,---,0.00,VWS V14.01,2013-09-29 19:50:00,
2013-09-29 12:55:00,68.1,60.6,30.08,North,360,2.0,10.0,77,0.00,,---,0.00,VWS V14.01,2013-09-29 19:55:00,
2013-09-29 13:00:00,67.9,60.4,30.09,WNW,282,0.0,5.0,77,0.00,,---,0.00,VWS V14.01,2013-09-29 20:00:00,
2013-09-29 13:05:00,68.3,60.5,30.09,WSW,238,0.0,5.0,76,0.00,,---,0.00,VWS V14.01,2013-09-29 20:05:00,
2013-09-29 13:10:00,68.6,60.7,30.08,SSE,148,0.0,5.0,76,0.00,,---,0.00,VWS V14.01,2013-09-29 20:10:00,
2013-09-29 13:16:00,68.5,60.6,30.08,South,188,0.0,5.0,76,0.00,,---,0.00,VWS V14.01,2013-09-29 20:16:00,
2013-09-29 13:21:00,68.7,60.8,30.08,SSE,155,5.0,5.0,76,0.00,,---,0.00,VWS V14.01,2013-09-29 20:21:00,
2013-09-29 13:26:00,69.0,60.8,30.08,SE,132,0.0,6.0,75,0.00,,---,0.00,VWS V14.01,2013-09-29 20:26:00,
2013-09-29 13:30:00,69.2,60.6,30.08,SE,132,0.0,6.0,74,0.00,,---,0.00,VWS V14.01,2013-09-29 20:30:00,
2013-09-29 13:31:00,69.4,60.4,30.08,SE,132,0.0,4.0,73,0.00,,---,0.00,VWS V14.01,2013-09-29 20:31:00,
2013-09-29 13:36:00,69.5,60.1,30.07,NNW,347,0.0,5.0,72,0.00,,---,0.00,VWS V14.01,2013-09-29 20:36:00,
2013-09-29 13:41:00,69.7,60.7,30.08,NE,48,0.0,5.0,73,0.00,,---,0.00,VWS V14.01,2013-09-29 20:41:00,
2013-09-29 13:46:00,68.7,59.7,30.07,North,360,5.0,9.0,73,0.00,,---,0.00,VWS V14.01,2013-09-29 20:46:00,
2013-09-29 13:51:00,67.8,60.7,30.07,WSW,254,0.0,9.0,78,0.00,,---,0.00,VWS V14.01,2013-09-29 20:51:00,
2013-09-29 13:56:00,67.8,60.3,30.07,WNW,295,0.0,9.0,77,0.00,,---,0.00,VWS V14.01,2013-09-29 20:56:00,
2013-09-29 14:00:00,67.7,60.2,30.07,North,360,1.0,9.0,77,0.00,,---,0.00,VWS V14.01,2013-09-29 21:00:00,
2013-09-29 14:01:00,67.7,60.2,30.07,North,360,0.0,3.0,77,0.00,,---,0.00,VWS V14.01,2013-09-29 21:01:00,
2013-09-29 14:06:00,68.0,60.2,30.07,SSW,208,0.0,4.0,76,0.00,,---,0.00,VWS V14.01,2013-09-29 21:06:00,
2013-09-29 14:11:00,68.6,60.7,30.07,SSW,196,0.0,4.0,76,0.00,,---,0.00,VWS V14.01,2013-09-29 21:11:00,
2013-09-29 14:16:00,68.7,60.5,30.07,West,265,0.0,7.0,75,0.00,,---,0.00,VWS V14.01,2013-09-29 21:16:00,
2013-09-29 14:21:00,68.7,60.1,30.06,SE,138,0.0,7.0,74,0.00,,---,0.00,VWS V14.01,2013-09-29 21:21:00,
2013-09-29 14:26:00,69.0,60.8,30.07,ESE,115,2.0,7.0,75,0.00,,---,0.00,VWS V14.01,2013-09-29 21:26:00,
2013-09-29 14:30:00,69.1,60.5,30.07,SE,132,0.0,7.0,74,0.00,,---,0.00,VWS V14.01,2013-09-29 21:30:00,
2013-09-29 14:31:00,69.2,60.6,30.07,West,275,2.0,7.0,74,0.00,,---,0.00,VWS V14.01,2013-09-29 21:31:00,
2013-09-29 14:36:00,69.3,61.0,30.06,SSW,194,0.0,7.0,75,0.00,,---,0.00,VWS V14.01,2013-09-29 21:36:00,
2013-09-29 14:41:00,69.5,60.9,30.06,West,279,0.0,7.0,74,0.00,,---,0.00,VWS V14.01,2013-09-29 21:41:00,
2013-09-29 14:46:00,69.5,61.2,30.06,NW,313,5.0,7.0,75,0.00,,---,0.00,VWS V14.01,2013-09-29 21:46:00,
2013-09-29 14:51:00,68.8,61.3,30.06,North,360,4.0,7.0,77,0.00,,---,0.00,VWS V14.01,2013-09-29 21:51:00,
2013-09-29 14:56:00,68.6,61.5,30.06,NW,304,4.0,7.0,78,0.00,,---,0.00,VWS V14.01,2013-09-29 21:56:00,
2013-09-29 15:00:00,68.3,61.2,30.06,NW,311,0.0,7.0,78,0.00,,---,0.00,VWS V14.01,2013-09-29 22:00:00,
2013-09-29 15:01:00,68.3,61.5,30.06,NW,314,0.0,3.0,79,0.00,,---,0.00,VWS V14.01,2013-09-29 22:01:00,
2013-09-29 15:06:00,68.3,61.2,30.06,WNW,285,0.0,6.0,78,0.00,,---,0.00,VWS V14.01,2013-09-29 22:06:00,
2013-09-29 15:11:00,67.9,61.2,30.06,WNW,284,0.0,7.0,79,0.00,,---,0.00,VWS V14.01,2013-09-29 22:11:00,
2013-09-29 15:16:00,67.3,60.9,30.06,NW,316,3.0,12.0,80,0.00,,---,0.00,VWS V14.01,2013-09-29 22:16:00,
2013-09-29 15:21:00,67.1,61.1,30.05,SW,220,0.0,12.0,81,0.00,,---,0.00,VWS V14.01,2013-09-29 22:21:00,
2013-09-29 15:26:00,67.4,61.4,30.06,SW,214,0.0,12.0,81,0.00,,---,0.00,VWS V14.01,2013-09-29 22:26:00,
2013-09-29 15:30:00,67.6,61.6,30.06,SE,125,0.0,12.0,81,0.00,,---,0.00,VWS V14.01,2013-09-29 22:30:00,
2013-09-29 15:32:00,67.8,61.4,30.05,North,360,0.0,11.0,80,0.00,,---,0.00,VWS V14.01,2013-09-29 22:32:00,
2013-09-29 15:37:00,67.5,61.5,30.06,WSW,254,0.0,11.0,81,0.00,,---,0.00,VWS V14.01,2013-09-29 22:37:00,
2013-09-29 15:42:00,67.4,61.4,30.06,SSE,161,1.0,11.0,81,0.00,,---,0.00,VWS V14.01,2013-09-29 22:42:00,
2013-09-29 15:47:00,67.9,61.5,30.06,East,82,3.0,11.0,80,0.00,,---,0.00,VWS V14.01,2013-09-29 22:47:00,
2013-09-29 15:52:00,68.2,61.5,30.06,NNW,339,0.0,11.0,79,0.00,,---,0.00,VWS V14.01,2013-09-29 22:52:00,
2013-09-29 15:57:00,67.5,61.1,30.06,North,360,7.0,11.0,80,0.00,,---,0.00,VWS V14.01,2013-09-29 22:57:00,
2013-09-29 16:00:00,67.3,61.3,30.06,NW,305,9.0,11.0,81,0.00,,---,0.00,VWS V14.01,2013-09-29 23:00:00,
2013-09-29 16:02:00,67.0,61.3,30.05,SSE,151,3.0,9.0,82,0.00,,---,0.00,VWS V14.01,2013-09-29 23:02:00,
2013-09-29 16:07:00,67.1,61.4,30.05,North,360,7.0,10.0,82,0.00,,---,0.00,VWS V14.01,2013-09-29 23:07:00,
2013-09-29 16:12:00,66.8,61.1,30.05,West,281,2.0,11.0,82,0.00,,---,0.00,VWS V14.01,2013-09-29 23:12:00,
2013-09-29 16:17:00,65.8,60.5,30.05,North,360,5.0,12.0,83,0.00,,---,0.00,VWS V14.01,2013-09-29 23:17:00,
2013-09-29 16:22:00,64.8,59.9,30.05,NNW,327,3.0,12.0,84,0.00,,---,0.00,VWS V14.01,2013-09-29 23:22:00,
2013-09-29 16:27:00,64.5,59.6,30.05,North,360,6.0,13.0,84,0.00,,---,0.00,VWS V14.01,2013-09-29 23:27:00,
2013-09-29 16:30:00,64.5,59.6,30.05,North,360,3.0,13.0,84,0.00,,---,0.00,VWS V14.01,2013-09-29 23:30:00,
2013-09-29 16:32:00,64.5,59.6,30.05,NW,313,7.0,9.0,84,0.00,,---,0.00,VWS V14.01,2013-09-29 23:32:00,
2013-09-29 16:37:00,64.4,59.5,30.05,NW,313,3.0,12.0,84,0.00,,---,0.00,VWS V14.01,2013-09-29 23:37:00,
2013-09-29 16:42:00,64.5,59.6,30.04,NW,318,7.0,14.0,84,0.00,,---,0.00,VWS V14.01,2013-09-29 23:42:00,
2013-09-29 16:47:00,64.6,59.7,30.04,NW,317,10.0,14.0,84,0.00,,---,0.00,VWS V14.01,2013-09-29 23:47:00,
2013-09-29 16:52:00,64.9,60.0,30.04,North,360,6.0,15.0,84,0.00,,---,0.00,VWS V14.01,2013-09-29 23:52:00,
2013-09-29 16:57:00,65.1,60.2,30.03,NW,315,0.0,15.0,84,0.00,,---,0.00,VWS V14.01,2013-09-29 23:57:00,
2013-09-29 17:00:00,65.1,60.2,30.03,NW,304,12.0,15.0,84,0.00,,---,0.00,VWS V14.01,2013-09-30 00:00:00,
2013-09-29 17:02:00,65.0,60.0,30.04,WNW,284,4.0,12.0,84,0.00,,---,0.00,VWS V14.01,2013-09-30 00:02:00,
2013-09-29 17:07:00,64.9,60.0,30.04,NW,306,3.0,13.0,84,0.00,,---,0.00,VWS V14.01,2013-09-30 00:07:00,
2013-09-29 17:12:00,64.9,60.0,30.03,NNW,340,2.0,13.0,84,0.00,,---,0.00,VWS V14.01,2013-09-30 00:12:00,
2013-09-29 17:17:00,64.6,59.7,30.04,North,360,3.0,14.0,84,0.00,,---,0.00,VWS V14.01,2013-09-30 00:17:00,
2013-09-29 17:22:00,64.3,59.4,30.04,WNW,282,7.0,14.0,84,0.00,,---,0.00,VWS V14.01,2013-09-30 00:22:00,
2013-09-29 17:28:00,63.9,58.6,30.04,North,360,8.0,15.0,83,0.00,,---,0.00,VWS V14.01,2013-09-30 00:28:00,
2013-09-29 17:30:00,63.9,58.6,30.04,North,360,13.0,15.0,83,0.00,,---,0.00,VWS V14.01,2013-09-30 00:30:00,
2013-09-29 17:33:00,63.7,58.5,30.04,West,279,4.0,15.0,83,0.00,,---,0.00,VWS V14.01,2013-09-30 00:33:00,
2013-09-29 17:38:00,63.6,58.0,30.04,WNW,284,7.0,15.0,82,0.00,,---,0.00,VWS V14.01,2013-09-30 00:38:00,
2013-09-29 17:43:00,63.4,57.8,30.04,North,360,10.0,15.0,82,0.00,,---,0.00,VWS V14.01,2013-09-30 00:43:00,
2013-09-29 17:48:00,63.1,57.2,30.03,WNW,284,5.0,15.0,81,0.00,,---,0.00,VWS V14.01,2013-09-30 00:48:00,
2013-09-29 17:53:00,62.9,57.0,30.04,NW,306,6.0,15.0,81,0.00,,---,0.00,VWS V14.01,2013-09-30 00:53:00,
2013-09-29 17:58:00,62.9,56.6,30.04,North,360,1.0,15.0,80,0.00,,---,0.00,VWS V14.01,2013-09-30 00:58:00,
2013-09-29 18:00:00,62.9,56.6,30.04,North,360,0.0,15.0,80,0.00,,---,0.00,VWS V14.01,2013-09-30 01:00:00,
2013-09-29 18:03:00,62.6,56.3,30.04,WNW,284,3.0,12.0,80,0.00,,---,0.00,VWS V14.01,2013-09-30 01:03:00,
2013-09-29 18:08:00,62.4,55.8,30.03,WNW,285,2.0,12.0,79,0.00,,---,0.00,VWS V14.01,2013-09-30 01:08:00,
2013-09-29 18:13:00,62.3,55.7,30.04,WNW,286,0.0,12.0,79,0.00,,---,0.00,VWS V14.01,2013-09-30 01:13:00,
2013-09-29 18:18:00,62.2,55.3,30.04,WNW,286,4.0,12.0,78,0.00,,---,0.00,VWS V14.01,2013-09-30 01:18:00,
2013-09-29 18:23:00,62.2,55.3,30.04,North,360,6.0,12.0,78,0.00,,---,0.00,VWS V14.01,2013-09-30 01:23:00,
2013-09-29 18:28:00,62.2,55.3,30.04,NW,307,5.0,5.0,78,0.00,,---,0.00,VWS V14.01,2013-09-30 01:28:00,
2013-09-29 18:30:00,62.2,55.3,30.04,NW,306,4.0,13.0,78,0.00,,---,0.00,VWS V14.01,2013-09-30 01:30:00,
2013-09-29 18:33:00,62.2,55.3,30.04,WNW,283,9.0,12.0,78,0.00,,---,0.00,VWS V14.01,2013-09-30 01:33:00,
2013-09-29 18:38:00,62.2,55.3,30.04,WNW,288,6.0,12.0,78,0.00,,---,0.00,VWS V14.01,2013-09-30 01:38:00,
2013-09-29 18:43:00,62.1,55.5,30.04,NW,305,9.0,12.0,79,0.00,,---,0.00,VWS V14.01,2013-09-30 01:43:00,
2013-09-29 18:48:00,62.0,55.4,30.04,WNW,284,3.0,12.0,79,0.00,,---,0.00,VWS V14.01,2013-09-30 01:48:00,
2013-09-29 18:54:00,61.9,55.0,30.05,West,276,5.0,12.0,78,0.00,,---,0.00,VWS V14.01,2013-09-30 01:54:00,
2013-09-29 18:59:00,61.8,54.9,30.04,West,272,4.0,6.0,78,0.00,,---,0.00,VWS V14.01,2013-09-30 01:59:00,
2013-09-29 19:00:00,61.9,55.0,30.04,West,271,6.0,12.0,78,0.00,,---,0.00,VWS V14.01,2013-09-30 02:00:00,
2013-09-29 19:04:00,61.8,54.5,30.04,NW,323,7.0,13.0,77,0.00,,---,0.00,VWS V14.01,2013-09-30 02:04:00,
2013-09-29 19:09:00,61.7,54.4,30.05,NW,325,4.0,13.0,77,0.00,,---,0.00,VWS V14.01,2013-09-30 02:09:00,
2013-09-29 19:14:00,61.7,54.4,30.04,NW,313,3.0,13.0,77,0.00,,---,0.00,VWS V14.01,2013-09-30 02:14:00,
2013-09-29 19:19:00,61.7,54.4,30.04,WNW,284,5.0,13.0,77,0.00,,---,0.00,VWS V14.01,2013-09-30 02:19:00,
2013-09-29 19:24:00,61.8,54.9,30.05,NW,315,0.0,13.0,78,0.00,,---,0.00,VWS V14.01,2013-09-30 02:24:00,
2013-09-29 19:29:00,61.9,55.3,30.05,North,360,0.0,0.0,79,0.00,,---,0.00,VWS V14.01,2013-09-30 02:29:00,
2013-09-29 19:30:00,61.9,55.0,30.05,North,360,0.0,13.0,78,0.00,,---,0.00,VWS V14.01,2013-09-30 02:30:00,
2013-09-29 19:34:00,62.0,55.4,30.05,North,360,0.0,4.0,79,0.00,,---,0.00,VWS V14.01,2013-09-30 02:34:00,
2013-09-29 19:39:00,62.1,55.9,30.05,WNW,284,0.0,4.0,80,0.00,,---,0.00,VWS V14.01,2013-09-30 02:39:00,
2013-09-29 19:44:00,62.2,56.3,30.05,WNW,284,0.0,6.0,81,0.00,,---,0.00,VWS V14.01,2013-09-30 02:44:00,
2013-09-29 19:49:00,62.2,56.3,30.05,WNW,283,0.0,6.0,81,0.00,,---,0.00,VWS V14.01,2013-09-30 02:49:00,
2013-09-29 19:54:00,62.2,56.3,30.05,WNW,284,0.0,6.0,81,0.00,,---,0.00,VWS V14.01,2013-09-30 02:54:00,
2013-09-29 19:59:00,62.1,56.2,30.05,West,279,4.0,4.0,81,0.00,,---,0.00,VWS V14.01,2013-09-30 02:59:00,
2013-09-29 20:00:00,62.1,56.2,30.05,West,279,0.0,8.0,81,0.00,,---,0.00,VWS V14.01,2013-09-30 03:00:00,
2013-09-29 20:04:00,62.0,55.8,30.06,WNW,302,0.0,10.0,80,0.00,,---,0.00,VWS V14.01,2013-09-30 03:04:00,
2013-09-29 20:09:00,62.0,55.4,30.06,North,360,0.0,10.0,79,0.00,,---,0.00,VWS V14.01,2013-09-30 03:09:00,
2013-09-29 20:14:00,61.9,55.3,30.06,North,360,0.0,10.0,79,0.00,,---,0.00,VWS V14.01,2013-09-30 03:14:00,
2013-09-29 20:19:00,61.8,54.9,30.06,North,360,0.0,10.0,78,0.00,,---,0.00,VWS V14.01,2013-09-30 03:19:00,
2013-09-29 20:24:00,61.8,54.9,30.07,WNW,282,2.0,10.0,78,0.00,,---,0.00,VWS V14.01,2013-09-30 03:24:00,
2013-09-29 20:29:00,61.6,54.3,30.07,WNW,286,5.0,5.0,77,0.00,,---,0.00,VWS V14.01,2013-09-30 03:29:00,
2013-09-29 20:30:00,61.7,54.4,30.07,WNW,283,0.0,10.0,77,0.00,,---,0.00,VWS V14.01,2013-09-30 03:30:00,
2013-09-29 20:34:00,61.4,54.1,30.07,West,270,0.0,9.0,77,0.00,,---,0.00,VWS V14.01,2013-09-30 03:34:00,
2013-09-29 20:40:00,61.3,53.7,30.07,West,277,0.0,9.0,76,0.00,,---,0.00,VWS V14.01,2013-09-30 03:40:00,
2013-09-29 20:45:00,61.3,53.3,30.07,West,276,5.0,9.0,75,0.00,,---,0.00,VWS V14.01,2013-09-30 03:45:00,
2013-09-29 20:50:00,61.3,53.3,30.07,West,277,0.0,9.0,75,0.00,,---,0.00,VWS V14.01,2013-09-30 03:50:00,
2013-09-29 20:55:00,61.4,53.4,30.07,West,276,0.0,9.0,75,0.00,,---,0.00,VWS V14.01,2013-09-30 03:55:00,
2013-09-29 21:00:00,61.4,53.0,30.07,West,275,0.0,0.0,74,0.00,,---,0.00,VWS V14.01,2013-09-30 04:00:00,
2013-09-29 21:01:00,61.4,53.0,30.07,West,275,0.0,0.0,74,0.00,,---,0.00,VWS V14.01,2013-09-30 04:01:00,
2013-09-29 21:02:00,61.4,53.0,30.07,West,273,0.0,0.0,74,0.00,,---,0.00,VWS V14.01,2013-09-30 04:02:00,
2013-09-29 21:04:00,61.5,53.2,30.07,West,273,0.0,4.0,74,0.00,,---,0.00,VWS V14.01,2013-09-30 04:04:00,
2013-09-29 21:06:00,61.5,53.2,30.07,West,269,0.0,4.0,74,0.00,,---,0.00,VWS V14.01,2013-09-30 04:06:00,
2013-09-29 21:11:00,61.4,53.0,30.07,West,269,0.0,5.0,74,0.00,,---,0.00,VWS V14.01,2013-09-30 04:11:00,
2013-09-29 21:16:00,61.6,53.2,30.07,South,178,0.0,5.0,74,0.00,,---,0.00,VWS V14.01,2013-09-30 04:16:00,
2013-09-29 21:21:00,61.5,53.2,30.07,South,178,0.0,5.0,74,0.00,,---,0.00,VWS V14.01,2013-09-30 04:21:00,
2013-09-29 21:26:00,61.5,53.2,30.07,SSE,148,0.0,5.0,74,0.00,,---,0.00,VWS V14.01,2013-09-30 04:26:00,
2013-09-29 21:30:00,61.5,53.2,30.07,SSE,148,0.0,5.0,74,0.00,,---,0.00,VWS V14.01,2013-09-30 04:30:00,
2013-09-29 21:31:00,61.5,53.2,30.07,SSE,149,0.0,1.0,74,0.00,,---,0.00,VWS V14.01,2013-09-30 04:31:00,
2013-09-29 21:36:00,61.5,53.2,30.07,SSE,149,0.0,1.0,74,0.00,,---,0.00,VWS V14.01,2013-09-30 04:36:00,
2013-09-29 21:41:00,61.5,52.8,30.07,SSE,149,0.0,1.0,73,0.00,,---,0.00,VWS V14.01,2013-09-30 04:41:00,
2013-09-29 21:46:00,61.5,52.8,30.07,SSE,155,0.0,1.0,73,0.00,,---,0.00,VWS V14.01,2013-09-30 04:46:00,
2013-09-29 21:51:00,61.6,52.9,30.07,SSE,159,0.0,1.0,73,0.00,,---,0.00,VWS V14.01,2013-09-30 04:51:00,
2013-09-29 21:56:00,61.6,52.9,30.07,SSE,157,0.0,1.0,73,0.00,,---,0.00,VWS V14.01,2013-09-30 04:56:00,
2013-09-29 22:00:00,61.6,52.9,30.07,SSE,167,0.0,1.0,73,0.00,,---,0.00,VWS V14.01,2013-09-30 05:00:00,
2013-09-29 22:01:00,61.6,52.9,30.07,SSE,167,0.0,0.0,73,0.00,,---,0.00,VWS V14.01,2013-09-30 05:01:00,
2013-09-29 22:06:00,61.7,53.0,30.06,SSE,167,0.0,0.0,73,0.00,,---,0.00,VWS V14.01,2013-09-30 05:06:00,
2013-09-29 22:11:00,61.7,53.0,30.06,SSE,168,0.0,0.0,73,0.00,,---,0.00,VWS V14.01,2013-09-30 05:11:00,
2013-09-29 22:17:00,61.7,53.0,30.07,SSE,155,0.0,3.0,73,0.00,,---,0.00,VWS V14.01,2013-09-30 05:17:00,
2013-09-29 22:22:00,61.7,53.0,30.07,SSE,155,0.0,3.0,73,0.00,,---,0.00,VWS V14.01,2013-09-30 05:22:00,
2013-09-29 22:27:00,61.7,53.0,30.07,SSE,155,0.0,3.0,73,0.00,,---,0.00,VWS V14.01,2013-09-30 05:27:00,
2013-09-29 22:30:00,61.7,53.0,30.06,SSE,155,0.0,3.0,73,0.00,,---,0.00,VWS V14.01,2013-09-30 05:30:00,
2013-09-29 22:32:00,61.8,53.1,30.07,SSE,155,0.0,0.0,73,0.00,,---,0.00,VWS V14.01,2013-09-30 05:32:00,
2013-09-29 22:37:00,61.8,53.1,30.07,SSE,155,0.0,2.0,73,0.00,,---,0.00,VWS V14.01,2013-09-30 05:37:00,
2013-09-29 22:42:00,61.8,53.1,30.06,SSE,155,0.0,2.0,73,0.00,,---,0.00,VWS V14.01,2013-09-30 05:42:00,
2013-09-29 22:47:00,61.9,53.2,30.06,SSE,155,0.0,2.0,73,0.00,,---,0.00,VWS V14.01,2013-09-30 05:47:00,
2013-09-29 22:52:00,61.9,53.2,30.06,SSE,155,0.0,2.0,73,0.00,,---,0.00,VWS V14.01,2013-09-30 05:52:00,
2013-09-29 22:57:00,62.0,53.3,30.06,SSE,157,0.0,2.0,73,0.00,,---,0.00,VWS V14.01,2013-09-30 05:57:00,
2013-09-29 23:00:00,62.0,53.3,30.06,SSE,157,0.0,2.0,73,0.00,,---,0.00,VWS V14.01,2013-09-30 06:00:00,
2013-09-29 23:02:00,62.0,53.3,30.06,SW,221,0.0,0.0,73,0.00,,---,0.00,VWS V14.01,2013-09-30 06:02:00,
2013-09-29 23:07:00,62.0,53.3,30.06,SW,221,0.0,0.0,73,0.00,,---,0.00,VWS V14.01,2013-09-30 06:07:00,
2013-09-29 23:12:00,62.0,53.3,30.06,SSW,213,2.0,3.0,73,0.00,,---,0.00,VWS V14.01,2013-09-30 06:12:00,
2013-09-29 23:17:00,62.0,53.3,30.06,SSW,210,0.0,3.0,73,0.00,,---,0.00,VWS V14.01,2013-09-30 06:17:00,
2013-09-29 23:22:00,62.0,53.3,30.06,SSW,211,0.0,3.0,73,0.00,,---,0.00,VWS V14.01,2013-09-30 06:22:00,
2013-09-29 23:27:00,62.0,52.9,30.06,SW,226,0.0,3.0,72,0.00,,---,0.00,VWS V14.01,2013-09-30 06:27:00,
2013-09-29 23:30:00,62.0,52.9,30.06,SW,226,0.0,3.0,72,0.00,,---,0.00,VWS V14.01,2013-09-30 06:30:00,
2013-09-29 23:32:00,62.1,53.0,30.06,SSW,213,0.0,0.0,72,0.00,,---,0.00,VWS V14.01,2013-09-30 06:32:00,
2013-09-29 23:37:00,62.1,53.0,30.06,SSW,213,0.0,0.0,72,0.00,,---,0.00,VWS V14.01,2013-09-30 06:37:00,
2013-09-29 23:42:00,62.1,53.0,30.06,SSW,207,0.0,0.0,72,0.00,,---,0.00,VWS V14.01,2013-09-30 06:42:00,
2013-09-29 23:47:00,62.2,52.7,30.06,SSW,203,0.0,0.0,71,0.00,,---,0.00,VWS V14.01,2013-09-30 06:47:00,
2013-09-29 23:52:00,62.2,52.7,30.05,SSW,202,0.0,0.0,71,0.00,,---,0.00,VWS V14.01,2013-09-30 06:52:00,
2013-09-29 23:57:00,62.2,52.3,30.05,SSW,193,0.0,2.0,70,0.00,,---,0.00,VWS V14.01,2013-09-30 06:57:00,